sat.trackr.live / text

‹ back to catalog

STARLINK-37431

NORAD 68812 · 2026-089L

PAYLOAD ACTIVE UNKNOWN

§ Identity

Operator
Country
US
Launch date
2026-04-23
Launch site
AFWTR
Launch vehicle
Mass (kg)
RCS (m²)

Purposes: comms

External: N2YO · Heavens-Above · Gunter

§ Orbital elements

Epoch: 2026-05-25T02:44:11.288256Z

Period
91.42 min
Inclination
97.2844°
Eccentricity
0.0001474
Mean motion
15.75186261 rev/d
Perigee alt
343.1 km
Apogee alt
345.1 km
Semi-major
6,722.2 km
B*
1.4284e-3
RAAN
351.7603°
Arg perigee
142.0991°
Mean anomaly
218.0378°
Rev number
506

§ Raw data

STARLINK-374311 68812U 26089L   26145.11401954  .00218424  00000+0  14284-2 0  99942 68812  97.2844 351.7603 0001474 142.0991 218.0378 15.75186261  5060

JSON: /api/v1/satellites/68812 · /tle

For live sub-satellite position, see the globe view (requires WebGL).

§ Visibility from observer

Set your observer location to see the next 7 days of passes ≥ 10°. The values pass through the URL so the page stays shareable.

No JS? Fill the form by hand. The geolocation button needs JavaScript.